Regional Weather Roundup
Issued by NWS

Home | Current Version | Previous Version | Graphics & Text | Print | Product List | Glossary On
Versions: 1 2 3 4 5 6 7 8 9 10 11 12 13 14 15 16 17 18 19 20 21 22 23 24 25 26 27 28 29 30 31 32 33 34 35 36 37 38 39 40 41 42 43 44 45 46 47 48 49 50
000
ASUS43 KLSX 281859
RWRMO

WEATHER SUMMARY FOR MISSOURI
NATIONAL WEATHER SERVICE SPRINGFIELD MO
100 PM CST SUN DEC 28 2014

NOTE: "FAIR" INDICATES FEW OR NO CLOUDS BELOW 12,000 FEET WITH NO
       SIGNIFICANT WEATHER AND/OR OBSTRUCTIONS TO VISIBILITY.
       CURRENT SKY AND/OR WEATHER CONDITIONS ARE NOT AVAILABLE FOR
       CHILLICOTHE AND FARMINGTON.

MOZ001>031-035>038-043-044-053-054-282000-
...NORTHERN AND WESTERN MISSOURI...

CITY           SKY/WX    TMP DP  RH WIND       PRES   REMARKS
KANSAS CTY INT MOSUNNY   36  19  50 SW9       30.16F WCI  29
KANSAS C DTWN  SUNNY     38  17  42 SW6       30.18F
LEE`S SUMMIT   SUNNY     35  20  54 W6        30.17F
ST JOSEPH      SUNNY     37  22  54 SW13      30.17F WCI  29
CHILLICOTHE      N/A     36  22  56 VRB7      30.20F
KIRKSVILLE     SUNNY     34  19  54 SW7       30.18F WCI  28

$$
MOZ066>068-077>081-088>096-101>105-282000-
...SOUTHWEST MISSOURI...

CITY           SKY/WX    TMP DP  RH WIND       PRES   REMARKS
SPRINGFIELD    MOSUNNY   32  25  75 CALM      30.17F
JOPLIN         SUNNY     33  24  69 VRB3      30.20F

$$
MOZ032>034-039>042-045>050-055>058-069>072-282000-
...CENTRAL MISSOURI...

CITY           SKY/WX    TMP DP  RH WIND       PRES   REMARKS
COLUMBIA       MOSUNNY   33  25  72 VRB5      30.19F WCI  29
JEFFERSON CITY MOSUNNY   34  24  67 CALM      30.22F
ROLLA          CLOUDY    32  25  75 CALM      30.16F
SEDALIA        SUNNY     35  18  49 VRB3      30.20F
OSAGE BEACH    PTSUNNY   34  25  69 CALM      30.20F

$$
MOZ051-052-059>065-282000-
...EAST CENTRAL MISSOURI...

CITY           SKY/WX    TMP DP  RH WIND       PRES   REMARKS
ST LOUIS INTL  CLOUDY    35  25  66 NW7       30.21F WCI  29
SPIRIT OF STL  CLOUDY    34  25  69 NW3       30.21F
ST CHARLES     CLOUDY    33  25  72 NW3       30.21F

$$
MOZ072>076-082>087-097>100-106>115-282000-
...SOUTH CENTRAL AND SOUTHEAST MISSOURI...

CITY           SKY/WX    TMP DP  RH WIND       PRES   REMARKS
CAPE GIRARDEAU CLOUDY    36  28  73 N8        30.20F WCI  30
FARMINGTON     CLOUDY    30  27  86 S3        30.19F
POPLAR BLUFF   CLOUDY    35  28  75 N6        30.19F
WEST PLAINS    CLOUDY    33  25  72 CALM      30.18F

$$


USA.gov is the U.S. government's official web portal to all federal, state and local government web resources and services.